| time (UTC) | temp F | wind direction | speed MPH | gust MPH | rain 1hr in | rain 24hr in | rain mn in | humidity % | barometer mb |
| 20260831114536 | 46 | 157 | 2.0 | 4.0 | 0.00 | 0.00 | 0.00 | 91 | 1016.8 |
| 20260831113034 | 46 | 157 | 0.0 | 2.0 | 0.00 | 0.00 | 0.00 | 91 | 1016.8 |
| 20260831111535 | 46 | 157 | 0.0 | 3.0 | 0.00 | 0.00 | 0.00 | 90 | 1016.8 |
| 20260831110035 | 46 | 157 | 1.0 | 4.0 | 0.00 | 0.00 | 0.00 | 89 | 1016.8 |
| 20260831103029 | 47 | 157 | 0.0 | 1.0 | 0.00 | 0.00 | 0.00 | 89 | 1016.8 |
| 20260831101534 | 47 | 157 | 0.0 | 0.0 | 0.00 | 0.00 | 0.00 | 89 | 1016.9 |
| 20260831100033 | 47 | 157 | 0.0 | 2.0 | 0.00 | 0.00 | 0.00 | 88 | 1017.0 |
| 20260831094537 | 48 | 157 | 0.0 | 2.0 | 0.00 | 0.00 | 0.00 | 87 | 1017.2 |
| 20260831093035 | 48 | 157 | 0.0 | 0.0 | 0.00 | 0.00 | 0.00 | 86 | 1017.2 |
| 20260831091534 | 48 | 157 | 0.0 | 0.0 | 0.00 | 0.00 | 0.00 | 85 | 1017.3 |
| 20260831084535 | 50 | 157 | 0.0 | 2.0 | 0.00 | 0.00 | 0.00 | 84 | 1017.4 |
| 20260831081532 | 51 | 157 | 0.0 | 0.0 | 0.00 | 0.00 | 0.00 | 83 | 1017.6 |
| 20260831073035 | 52 | 180 | 0.0 | 2.0 | 0.00 | 0.00 | 0.00 | 83 | 1017.7 |
| 20260831071610 | 52 | 180 | 0.0 | 2.0 | 0.00 | 0.00 | 0.00 | 82 | 1017.7 |
| 20260831070032 | 53 | 180 | 0.0 | 0.0 | 0.00 | 0.00 | 0.00 | 81 | 1017.7 |
| 20260831064644 | 53 | 180 | 0.0 | 1.0 | 0.00 | 0.00 | 0.00 | 79 | 1017.7 |
| 20260831063036 | 54 | 180 | 0.0 | 2.0 | 0.00 | 0.00 | 0.00 | 77 | 1017.8 |
| 20260831061535 | 56 | 180 | 2.0 | 3.0 | 0.00 | 0.00 | 0.00 | 75 | 1017.9 |
| 20260831060034 | 56 | 180 | 0.0 | 3.0 | 0.00 | 0.00 | 0.00 | 74 | 1017.9 |
| 20260831054531 | 56 | 218 | 1.0 | 4.0 | 0.00 | 0.00 | 0.00 | 74 | 1017.8 |
| 20260831053034 | 56 | 236 | 2.0 | 4.0 | 0.00 | 0.00 | 0.00 | 75 | 1018.0 |
| 20260831050148 | 58 | 236 | 0.0 | 3.0 | 0.00 | 0.00 | 0.00 | 70 | 1018.0 |
| 20260831044531 | 60 | 270 | 0.0 | 0.0 | 0.00 | 0.00 | 0.00 | 67 | 1018.0 |
| 20260831043035 | 63 | 245 | 0.0 | 3.0 | 0.00 | 0.00 | 0.00 | 62 | 1017.9 |
| 20260831041542 | 66 | 270 | 0.0 | 2.0 | 0.00 | 0.00 | 0.00 | 57 | 1017.9 |
| 20260831040034 | 65 | 261 | 3.0 | 8.0 | 0.00 | 0.00 | 0.00 | 59 | 1017.9 |
| 20260831034529 | 65 | 225 | 0.0 | 6.0 | 0.00 | 0.00 | 0.00 | 57 | 1017.7 |
| 20260831033035 | 66 | 217 | 1.0 | 5.0 | 0.00 | 0.00 | 0.00 | 55 | 1017.5 |
| 20260831030030 | 69 | 252 | 4.0 | 11.0 | 0.00 | 0.00 | 0.00 | 50 | 1017.3 |
| 20260831024535 | 70 | 256 | 4.0 | 10.0 | 0.00 | 0.00 | 0.00 | 47 | 1017.2 |
| 20260831021531 | 71 | 263 | 6.0 | 14.0 | 0.00 | 0.00 | 0.00 | 45 | 1017.3 |
| 20260831013034 | 73 | 271 | 7.0 | 15.0 | 0.00 | 0.00 | 0.00 | 41 | 1017.3 |
| 20260831011535 | 74 | 271 | 7.0 | 17.0 | 0.00 | 0.00 | 0.00 | 40 | 1017.3 |
| 20260831004607 | 75 | 268 | 8.0 | 17.0 | 0.00 | 0.00 | 0.00 | 38 | 1017.5 |
| 20260831003035 | 75 | 264 | 8.0 | 17.0 | 0.00 | 0.00 | 0.00 | 38 | 1017.5 |
| 20260831001534 | 75 | 264 | 9.0 | 16.0 | 0.00 | 0.00 | 0.00 | 37 | 1017.5 |
| 20260831000034 | 76 | 263 | 7.0 | 15.0 | 0.00 | 0.00 | 0.00 | 37 | 1017.6 |
| 20260830234536 | 75 | 267 | 8.0 | 18.0 | 0.00 | 0.00 | 0.00 | 38 | 1017.7 |
| 20260830233035 | 75 | 269 | 9.0 | 17.0 | 0.00 | 0.00 | 0.00 | 39 | 1017.9 |
| 20260830231537 | 75 | 272 | 9.0 | 18.0 | 0.00 | 0.00 | 0.00 | 38 | 1018.1 |
| 20260830230155 | 74 | 280 | 9.0 | 19.0 | 0.00 | 0.00 | 0.00 | 40 | 1018.5 |
| 20260830223136 | 73 | 280 | 10.0 | 20.0 | 0.00 | 0.00 | 0.00 | 40 | 1018.7 |
| 20260830221534 | 73 | 274 | 10.0 | 22.0 | 0.00 | 0.00 | 0.00 | 40 | 1018.9 |
| 20260830220032 | 72 | 276 | 10.0 | 22.0 | 0.00 | 0.00 | 0.00 | 42 | 1019.1 |
| 20260830214531 | 72 | 267 | 9.0 | 20.0 | 0.00 | 0.00 | 0.00 | 43 | 1019.5 |
| 20260830213032 | 71 | 272 | 12.0 | 26.0 | 0.00 | 0.00 | 0.00 | 44 | 1019.7 |
| 20260830211535 | 71 | 272 | 10.0 | 20.0 | 0.00 | 0.00 | 0.00 | 44 | 1019.7 |
| 20260830210034 | 71 | 271 | 10.0 | 20.0 | 0.00 | 0.00 | 0.00 | 45 | 1019.8 |
| 20260830204532 | 70 | 273 | 9.0 | 21.0 | 0.00 | 0.00 | 0.00 | 47 | 1020.0 |
| 20260830203035 | 70 | 269 | 11.0 | 23.0 | 0.00 | 0.00 | 0.00 | 47 | 1020.3 |
| 20260830201534 | 69 | 276 | 9.0 | 21.0 | 0.00 | 0.00 | 0.00 | 48 | 1020.5 |
| 20260830193033 | 68 | 270 | 8.0 | 18.0 | 0.00 | 0.00 | 0.00 | 50 | 1021.0 |
| 20260830190037 | 66 | 268 | 6.0 | 18.0 | 0.00 | 0.00 | 0.00 | 52 | 1021.4 |
| 20260830184643 | 66 | 270 | 7.0 | 19.0 | 0.00 | 0.00 | 0.00 | 53 | 1021.6 |
| 20260830183037 | 66 | 279 | 7.0 | 15.0 | 0.00 | 0.00 | 0.00 | 55 | 1021.7 |
| 20260830181535 | 65 | 276 | 6.0 | 13.0 | 0.00 | 0.00 | 0.00 | 57 | 1021.8 |
| 20260830174535 | 63 | 279 | 7.0 | 17.0 | 0.00 | 0.00 | 0.00 | 60 | 1021.8 |
| 20260830173036 | 62 | 279 | 7.0 | 14.0 | 0.00 | 0.00 | 0.00 | 61 | 1021.9 |
| 20260830164538 | 61 | 268 | 6.0 | 14.0 | 0.00 | 0.00 | 0.00 | 67 | 1022.2 |
| 20260830163034 | 60 | 266 | 6.0 | 14.0 | 0.00 | 0.00 | 0.00 | 70 | 1022.3 |
| 20260830161534 | 59 | 264 | 7.0 | 17.0 | 0.00 | 0.00 | 0.00 | 72 | 1022.4 |
| 20260830160031 | 58 | 260 | 7.0 | 14.0 | 0.00 | 0.00 | 0.00 | 74 | 1022.7 |
| 20260830150034 | 55 | 255 | 6.0 | 13.0 | 0.00 | 0.00 | 0.00 | 81 | 1022.9 |
| 20260830143037 | 55 | 266 | 8.0 | 17.0 | 0.00 | 0.00 | 0.00 | 81 | 1022.8 |
| 20260830140035 | 54 | 271 | 7.0 | 16.0 | 0.00 | 0.00 | 0.00 | 83 | 1022.6 |
| 20260830134535 | 54 | 273 | 7.0 | 17.0 | 0.00 | 0.00 | 0.00 | 83 | 1022.5 |
| 20260830133142 | 54 | 270 | 7.0 | 15.0 | 0.00 | 0.00 | 0.00 | 83 | 1022.4 |
| 20260830131535 | 54 | 260 | 6.0 | 14.0 | 0.00 | 0.00 | 0.00 | 83 | 1022.2 |
| 20260830130029 | 54 | 267 | 6.0 | 14.0 | 0.00 | 0.00 | 0.00 | 83 | 1022.2 |
| 20260830124537 | 54 | 262 | 6.0 | 14.0 | 0.00 | 0.00 | 0.00 | 83 | 1022.1 |
| 20260830123108 | 54 | 267 | 7.0 | 14.0 | 0.00 | 0.00 | 0.00 | 83 | 1022.1 |
| 20260830121531 | 54 | 263 | 7.0 | 14.0 | 0.00 | 0.00 | 0.00 | 83 | 1022.1 |